Flag for Netherlands Weather past 2 weeks in Breda, Netherlands

Now
77 °F

Pleasantly warm.


Feels Like: 78 °F
Forecast: 62 / 78 °F
Wind: 7 mph from West

Location: Gilze-Rijen

Current Time: Jul 6, 2015 at 6:13:04 PM

Latest Report: Jul 6, 2015 at 5:25 PM


Visibility: N/A

Pressure: 30.09 "Hg

Humidity: 39%

Dew point: 50 °F

Location of BredaLocation

Historic Weather in Breda — Graph

°F

Breda temperature yesterday

Maximum temperature yesterday: 84 °F (at 12:55 PM)
Minimum temperature yesterday: 61 °F (at 2:55 AM)
Average temperature yesterday: 70 °F

Past Weeks' High & Low Weather Summary

 TemperatureHumidityPressure
High93 °F (Jul 1, 3:25 PM)100% (Jun 22, 4:59 AM)30.24 "Hg (Jun 22, 4:59 AM)
Low48 °F (Jun 28, 4:25 AM)26% (Jul 4, 3:25 PM)29.71 "Hg (Jun 22, 4:55 PM)
Average68 °F67%30.06 "Hg
* Reported Jun 21 4:01 PM — Jul 6 4:55 PM, Breda, Weather by CustomWeather, © 2015

Note: Actual official high and low records may vary slightly from our data, if they occured in-between our weather recording intervals... More about our weather records

Advertising

Breda weather history for previous 24 hours

 ConditionsComfort  
Time TempWeatherWind HumidityBarometerVisibility
4:55 PM
Mon, Jul 6
75 °FScattered clouds.7 mph41%30.12 "HgN/A
4:25 PM75 °FScattered clouds.8 mph41%30.12 "HgN/A
3:55 PM75 °FScattered clouds.9 mph41%30.12 "HgN/A
3:25 PM75 °FPassing clouds.10 mph41%30.12 "HgN/A
2:55 PM75 °FPassing clouds.9 mph41%30.12 "HgN/A
2:25 PM75 °FScattered clouds.9 mph41%30.12 "HgN/A
1:55 PM75 °FPassing clouds.10 mph41%30.12 "HgN/A
1:25 PM73 °FScattered clouds.9 mph44%30.15 "HgN/A
12:55 PM72 °FPassing clouds.8 mph47%30.15 "HgN/A
12:25 PM72 °FBroken clouds.10 mph50%30.15 "HgN/A
11:55 AM70 °FScattered clouds.10 mph53%30.15 "HgN/A
11:25 AM68 °FScattered clouds.9 mph56%30.15 "HgN/A
10:55 AM68 °FScattered clouds.8 mph60%30.15 "HgN/A
10:25 AM66 °FBroken clouds.7 mph68%30.15 "HgN/A
10:00 AM64 °FScattered clouds.7 mph73%30.15 "HgN/A
9:55 AM64 °FPassing clouds.7 mph73%30.15 "HgN/A
9:25 AM63 °FPartly sunny.6 mph77%30.15 "HgN/A
8:55 AM63 °FPartly sunny.6 mph77%30.15 "HgN/A
8:25 AM61 °FFog.6 mph83%30.15 "Hg6 mi
7:55 AM59 °FFog.5 mph88%30.15 "Hg5 mi
7:25 AM59 °FFog.7 mph88%30.15 "Hg6 mi
6:59 AM59 °FFog.8 mph88%30.12 "Hg6 mi
6:25 AM57 °FLow clouds.7 mph88%30.12 "HgN/A
5:55 AM57 °FPartly cloudy.6 mph88%30.12 "HgN/A
4:55 AM55 °FCool.6 mph88%30.12 "HgN/A
4:25 AM57 °FCool.6 mph82%30.12 "HgN/A
3:55 AM57 °FCool.6 mph82%30.12 "HgN/A
3:25 AM57 °FCool.6 mph82%30.09 "HgN/A
2:55 AM59 °FCool.6 mph82%30.09 "HgN/A
2:25 AM59 °FCool.7 mph82%30.09 "HgN/A
1:55 AM61 °FCool.6 mph77%30.09 "HgN/A
1:25 AM61 °FCool.8 mph83%30.09 "HgN/A
12:55 AM63 °FMild.7 mph77%30.07 "HgN/A
12:25 AM63 °FMild.6 mph83%30.07 "HgN/A
11:59 PM
Sun, Jul 5
64 °FPassing clouds.6 mph78%30.07 "HgN/A
11:55 PM64 °FPartly cloudy.6 mph73%30.07 "HgN/A
10:55 PM66 °FPartly sunny.7 mph73%30.04 "HgN/A
10:25 PM64 °FMild.6 mph78%30.04 "HgN/A
9:55 PM66 °FPassing clouds.8 mph73%30.01 "HgN/A
9:25 PM66 °FMild.9 mph73%30.01 "HgN/A
8:55 PM68 °FMild.10 mph69%30.01 "HgN/A
8:25 PM70 °FMild.10 mph64%30.01 "HgN/A
7:55 PM70 °FPassing clouds.15 mph64%30.01 "HgN/A
7:25 PM73 °FPassing clouds.13 mph57%30.01 "HgN/A
6:55 PM72 °FScattered clouds.7 mph61%30.01 "HgN/A
6:25 PM72 °FPassing clouds.12 mph61%29.95 "HgN/A
Weather by CustomWeather, © 2015

See weather overviewHow to use our weather pages